Decorah, IA

9:40 AM CST on December 09, 2019 (GMT -0600)
Decorah Municipal

Weather History for KDEH - October, 2019

Change the Weather History Date:

Saturday, October 12, 2019

  Actual Average Record
Temperature  
Mean Temperature 34 °F -  
Max Temperature 41 °F 62 °F 85 °F (1956)
Min Temperature 28 °F 39 °F 21 °F (1988)
Degree Days  
Heating Degree Days 30    
Moisture  
Dew Point 29 °F    
Average Humidity 84    
Maximum Humidity 100    
Minimum Humidity 49    
Precipitation  
Precipitation 0.04 in - - ()
Sea Level Pressure  
Sea Level Pressure 29.79 in    
Wind  
Wind Speed 9 mph ()    
Max Wind Speed 17 mph    
Max Gust Speed 31 mph    
Visibility 9.0 miles    
Events Snow    
Averages and records for this station are not official NWS values.
T = Trace of Precipitation, MM = Missing Value Source: Averaged Metar Reports

Daily Weather History Graph

Daily Weather History Graph

Search for Another Location

Airport or City:

Astronomy

Oct. 12, 2019 Rise Set
Actual Time 7:16 AM CDT 6:29 PM CDT
Civil Twilight 6:48 AM CDT 6:57 PM CDT
Nautical Twilight 6:15 AM CDT 7:30 PM CDT
Astronomical Twilight 5:42 AM CDT 8:03 PM CDT
Moon 6:28 PM CDT (10/12) 5:50 AM CDT (10/12)
Length of Visible Light 12h 09m
Length of Day
11h 12m
Waxing Gibbous, 99% of the Moon is Illuminated
Oct 12
Waxing Gibbous
Oct 13
Full
Oct 21
Last Quarter
Oct 27
New
Nov 4
First Quarter

Hourly Weather History & Observations

Time (CDT) Temp. Windchill Dew Point Humidity Pressure Visibility Wind Dir Wind Speed Gust Speed Precip Events Conditions
12:15 AM 35.6 °F 28.0 °F 26.6 °F 70% 29.89 in 10.0 mi WSW 10.4 mph 17.3 mph N/A   Overcast
12:35 AM 35.6 °F 27.5 °F 26.6 °F 70% 29.89 in 10.0 mi WSW 11.5 mph 19.6 mph N/A   Overcast
12:55 AM 33.8 °F 25.8 °F 26.6 °F 75% 29.89 in 10.0 mi SW 10.4 mph 19.6 mph N/A   Mostly Cloudy
1:15 AM 33.8 °F 26.4 °F 26.6 °F 75% 29.89 in 10.0 mi SW 9.2 mph 16.1 mph N/A   Partly Cloudy
1:35 AM 33.8 °F 25.8 °F 24.8 °F 70% 29.89 in 10.0 mi SW 10.4 mph 21.9 mph N/A   Clear
1:55 AM 32.0 °F 23.0 °F 24.8 °F 75% 29.88 in 10.0 mi WSW 11.5 mph 24.2 mph N/A   Clear
2:15 AM 32.0 °F 24.8 °F 24.8 °F 75% 29.88 in 10.0 mi WSW 8.1 mph 17.3 mph N/A   Clear
2:35 AM 32.0 °F 23.6 °F 24.8 °F 75% 29.87 in 10.0 mi WSW 10.4 mph 19.6 mph N/A   Clear
2:55 AM 32.0 °F 23.0 °F 24.8 °F 75% 29.86 in 10.0 mi SW 11.5 mph 20.7 mph N/A   Clear
3:15 AM 32.0 °F 24.8 °F 24.8 °F 75% 29.86 in 10.0 mi SW 8.1 mph 15.0 mph N/A   Clear
3:35 AM 32.0 °F 24.2 °F 24.8 °F 75% 29.85 in 10.0 mi WSW 9.2 mph 17.3 mph N/A   Clear
3:55 AM 32.0 °F 24.2 °F 23.0 °F 69% 29.85 in 10.0 mi SW 9.2 mph 17.3 mph N/A   Clear
4:15 AM 30.2 °F 22.6 °F 24.8 °F 80% 29.85 in 10.0 mi SW 8.1 mph 20.7 mph N/A   Clear
4:35 AM 30.2 °F 23.4 °F 24.8 °F 80% 29.85 in 10.0 mi Variable 6.9 mph 17.3 mph N/A   Clear
4:55 AM 30.2 °F 21.9 °F 24.8 °F 80% 29.84 in 10.0 mi SW 9.2 mph 19.6 mph N/A   Clear
5:15 AM 30.2 °F 21.9 °F 24.8 °F 80% 29.84 in 10.0 mi SW 9.2 mph 18.4 mph N/A   Clear
5:35 AM 30.2 °F 22.6 °F 24.8 °F 80% 29.84 in 10.0 mi SW 8.1 mph 19.6 mph N/A   Clear
5:55 AM 30.2 °F 21.9 °F 24.8 °F 80% 29.83 in 10.0 mi SW 9.2 mph 18.4 mph N/A   Clear
6:15 AM 30.2 °F 20.8 °F 24.8 °F 80% 29.82 in 10.0 mi SSW 11.5 mph 24.2 mph N/A   Clear
6:35 AM 28.4 °F 18.5 °F 24.8 °F 86% 29.82 in 10.0 mi SW 11.5 mph 20.7 mph N/A   Clear
6:55 AM 28.4 °F 19.7 °F 24.8 °F 86% 29.82 in 10.0 mi SW 9.2 mph 19.6 mph N/A   Clear
7:15 AM 30.2 °F 21.3 °F 24.8 °F 80% 29.81 in 10.0 mi SW 10.4 mph 24.2 mph N/A   Clear
7:35 AM 30.2 °F 22.6 °F 24.8 °F 80% 29.81 in 10.0 mi SW 8.1 mph 17.3 mph N/A   Clear
7:55 AM 30.2 °F 20.2 °F 24.8 °F 80% 29.80 in 10.0 mi SSW 12.7 mph 20.7 mph N/A   Clear
8:15 AM 30.2 °F 21.3 °F 24.8 °F 80% 29.81 in 10.0 mi SSW 10.4 mph 21.9 mph N/A   Clear
8:35 AM 30.2 °F 20.8 °F 24.8 °F 80% 29.80 in 10.0 mi SSW 11.5 mph 23.0 mph N/A   Clear
8:55 AM 32.0 °F 24.2 °F 24.8 °F 75% 29.80 in 10.0 mi SW 9.2 mph 20.7 mph N/A   Clear
9:15 AM 33.8 °F 26.4 °F 24.8 °F 70% 29.79 in 10.0 mi SSW 9.2 mph 19.6 mph N/A   Clear
9:35 AM 35.6 °F 28.0 °F 24.8 °F 65% 29.79 in 10.0 mi SW 10.4 mph 19.6 mph N/A   Clear
9:55 AM 35.6 °F 26.2 °F 24.8 °F 65% 29.78 in 10.0 mi SSW 15.0 mph 26.5 mph N/A   Clear
10:15 AM 35.6 °F 27.5 °F 24.8 °F 65% 29.77 in 10.0 mi SW 11.5 mph 25.3 mph N/A   Unknown
10:35 AM 37.4 °F 31.4 °F 26.6 °F 65% 29.77 in 10.0 mi SW 8.1 mph 25.3 mph N/A   Unknown
10:55 AM 37.4 °F 29.3 °F 24.8 °F 60% 29.76 in 10.0 mi SW 12.7 mph 24.2 mph N/A   Unknown
11:15 AM 37.4 °F 27.8 °F 24.8 °F 60% 29.75 in 10.0 mi SW 17.3 mph 31.1 mph N/A   Partly Cloudy
11:35 AM 39.2 °F 31.2 °F 26.6 °F 61% 29.74 in 10.0 mi SW 13.8 mph 27.6 mph N/A   Partly Cloudy
12:15 PM 41.0 °F 32.8 °F 23.0 °F 49% 29.74 in 10.0 mi WSW 16.1 mph 27.6 mph N/A   Scattered Clouds
12:35 PM 39.2 °F 30.5 °F 23.0 °F 52% 29.75 in 10.0 mi WSW 16.1 mph 28.8 mph N/A   Scattered Clouds
12:55 PM 37.4 °F 30.8 °F 24.8 °F 60% 29.75 in 10.0 mi WSW 9.2 mph 29.9 mph N/A   Mostly Cloudy
1:15 PM 35.6 °F 27.5 °F 28.4 °F 75% 29.76 in 4.0 mi West 11.5 mph 25.3 mph N/A Snow Light Snow
1:35 PM 33.8 °F 27.0 °F 32.0 °F 93% 29.76 in 1.0 mi West 8.1 mph 25.3 mph N/A Snow Light Snow
1:55 PM 33.8 °F 27.7 °F 32.0 °F 93% 29.76 in 0.5 mi Variable 6.9 mph 21.9 mph N/A Snow Light Snow
2:15 PM 33.8 °F 27.0 °F 33.8 °F 100% 29.76 in 0.8 mi WSW 8.1 mph 13.8 mph N/A Snow Light Snow
2:35 PM 33.8 °F 25.8 °F 33.8 °F 100% 29.76 in 0.8 mi SW 10.4 mph 18.4 mph N/A Snow Light Snow
2:55 PM 33.8 °F 27.0 °F 33.8 °F 100% 29.77 in 0.8 mi WSW 8.1 mph 15.0 mph 0.02 in Snow Light Snow
3:15 PM 32.0 °F 26.4 °F 32.0 °F 100% 29.76 in 1.0 mi Variable 5.8 mph 12.7 mph N/A Snow Light Snow
3:55 PM 33.8 °F 27.0 °F 33.8 °F 100% 29.75 in 4.0 mi WSW 8.1 mph 16.1 mph 0.02 in Snow Light Snow
4:15 PM 33.8 °F 25.8 °F 33.8 °F 100% 29.75 in 9.0 mi SW 10.4 mph 17.3 mph N/A   Scattered Clouds
4:35 PM 35.6 °F 28.0 °F 33.8 °F 93% 29.74 in 9.0 mi WSW 10.4 mph 28.8 mph N/A Snow Light Snow
4:55 PM 33.8 °F 25.3 °F 33.8 °F 100% 29.75 in 9.0 mi WSW 11.5 mph 23.0 mph N/A Snow Light Snow
5:15 PM 33.8 °F 26.4 °F 33.8 °F 100% 29.74 in 10.0 mi SW 9.2 mph 19.6 mph N/A   Mostly Cloudy
5:35 PM 35.6 °F 28.0 °F 33.8 °F 93% 29.74 in 10.0 mi SW 10.4 mph 19.6 mph N/A   Mostly Cloudy
5:55 PM 35.6 °F 28.6 °F 33.8 °F 93% 29.75 in 10.0 mi WSW 9.2 mph 18.4 mph N/A   Mostly Cloudy
6:15 PM 35.6 °F 27.5 °F 33.8 °F 93% 29.75 in 10.0 mi WSW 11.5 mph 20.7 mph N/A   Overcast
6:35 PM 35.6 °F 28.6 °F 33.8 °F 93% 29.74 in 10.0 mi WSW 9.2 mph - N/A   Overcast
6:55 PM 35.6 °F 26.6 °F 33.8 °F 93% 29.74 in 10.0 mi West 13.8 mph 23.0 mph N/A   Mostly Cloudy
7:15 PM 35.6 °F 27.1 °F 33.8 °F 93% 29.74 in 10.0 mi West 12.7 mph 23.0 mph N/A   Mostly Cloudy
7:35 PM 35.6 °F 29.2 °F 33.8 °F 93% 29.74 in 10.0 mi WSW 8.1 mph 15.0 mph N/A   Mostly Cloudy
7:55 PM 35.6 °F 28.0 °F 33.8 °F 93% 29.76 in 10.0 mi West 10.4 mph 16.1 mph N/A   Overcast
8:15 PM 33.8 °F 25.3 °F 33.8 °F 100% 29.75 in 10.0 mi WSW 11.5 mph 20.7 mph N/A   Overcast
8:35 PM 33.8 °F 26.4 °F 33.8 °F 100% 29.75 in 10.0 mi West 9.2 mph 19.6 mph N/A   Overcast
8:55 PM 33.8 °F 27.0 °F 33.8 °F 100% 29.75 in 10.0 mi WSW 8.1 mph 17.3 mph N/A   Overcast
9:15 PM 33.8 °F 27.7 °F 33.8 °F 100% 29.75 in 9.0 mi Variable 6.9 mph 15.0 mph N/A   Overcast
9:35 PM 33.8 °F 27.7 °F 33.8 °F 100% 29.75 in 10.0 mi SW 6.9 mph 13.8 mph N/A   Overcast
9:55 PM 33.8 °F 28.6 °F 33.8 °F 100% 29.75 in - Variable 5.8 mph 17.3 mph N/A   Overcast
10:15 PM 33.8 °F 26.4 °F 33.8 °F 100% 29.75 in 10.0 mi WSW 9.2 mph 16.1 mph N/A   Mostly Cloudy
10:35 PM 33.8 °F 27.7 °F 33.8 °F 100% 29.74 in 10.0 mi Variable 6.9 mph 16.1 mph N/A   Overcast
10:55 PM 33.8 °F 26.4 °F 33.8 °F 100% 29.74 in 10.0 mi WSW 9.2 mph 16.1 mph N/A   Overcast
11:15 PM 33.8 °F 27.7 °F 33.8 °F 100% 29.73 in 10.0 mi Variable 6.9 mph 15.0 mph N/A   Overcast
11:35 PM 33.8 °F 27.0 °F 33.8 °F 100% 29.73 in 10.0 mi WSW 8.1 mph - N/A   Overcast
11:55 PM 33.8 °F 28.6 °F 33.8 °F 100% 29.73 in 10.0 mi Variable 5.8 mph 12.7 mph N/A   Overcast